Regional Weather Roundup
Issued by NWS Kansas City/Pleasant Hill, MO

Home | Current Version | Previous Version | Graphics & Text | Print | Product List | Glossary Off
Versions: 1 2 3 4 5 6 7 8 9 10 11 12 13 14 15 16 17 18 19 20 21 22 23 24 25 26 27 28 29 30 31 32 33 34 35 36 37 38 39 40 41 42 43 44 45 46 47 48 49 50

000
ASUS43 KEAX 260310
RWREAX

WEATHER ROUNDUP FOR EASTERN KANSAS AND NORTHWEST MISSOURI
NATIONAL WEATHER SERVICE KANSAS CITY/PLEASANT HILL MO
900 PM CST SUN JAN 25 2015

KSZ040-057-103>105-MOZ028-029-037-043-260400-
...KANSAS CITY METROPOLITAN AREA...

CITY           SKY/WX    TMP DP  RH WIND       PRES   REMARKS
K.C. INTL      PTCLDY    32  28  85 N3        30.09R
K.C. DOWNTOWN  MOCLDY    37  29  72 N6        30.10R WCI  32
LEES SUMMIT    CLOUDY    36  28  73 N13       30.09S WCI  27
OLATHE - IXD   CLEAR     30  26  85 NW7       30.11R WCI  23
OLATHE - OJC   CLOUDY    37  30  75 N6        30.09R WCI  32
LAWRENCE       MOCLDY    30  27  88 NW3       30.11R

$$

MOZ001>008-011>017-020>025-030>033-038>040-044>046-053-054-260400-
...NORTHERN AND CENTRAL MISSOURI...

CITY           SKY/WX    TMP DP  RH WIND       PRES   REMARKS
ST. JOSEPH     PTCLDY    29  26  89 NE5       30.11R WCI  24
MOSBY          CLOUDY    36  30  80 N13       30.10R WCI  27
WARRENSBURG    CLOUDY    34  30  86 N7        30.08F WCI  28
WHITEMAN AFB   CLOUDY    34  30  83 N12       30.07S WCI  26
CLINTON        CLOUDY    36  32  87 N10       30.09R WCI  28
SEDALIA        CLOUDY    34  30  85 N14       30.08R WCI  25
WARSAW         NOT AVBL
MARSHALL       CLOUDY    36  32  87 N14       30.09R WCI  27
CHILLICOTHE      N/A     34  29  82 CALM      30.10S
MOBERLY        CLOUDY    32  27  80 NW12      30.07R WCI  23
KIRKSVILLE     CLOUDY    30  27  88 N7        30.06S WCI  23

$$

MOZ041-047>049-056>058-063>065-088>090-097-260400-
...EASTERN AND SOUTHERN MISSOURI...

CITY           SKY/WX    TMP DP  RH WIND       PRES   REMARKS
ST. LOUIS INTL CLOUDY    33  27  78 N13G22    29.98R WCI  24
SPIRIT OF STL  CLOUDY    32  28  86 N14       29.99R WCI  22
COLUMBIA       CLOUDY    32  29  88 NW9       30.03S WCI  24
JEFFERSON CITY CLOUDY    33  28  81 N7        30.05R WCI  27
MEXICO         CLOUDY   N/A N/A N/A NW10      30.02S
HANNIBAL       CLOUDY    30  27  86 N13G18    30.05R WCI  20
ROLLA          CLOUDY    31  28  89 NW20G26   29.98R WCI  19
LEBANON        CLOUDY    34  30  86 N16       30.01S WCI  23
OSAGE BEACH    CLOUDY    34  28  80 N7        30.03F WCI  28
SPRINGFIELD    CLOUDY    36  32  85 NW18G26   30.03R WCI  26
BRANSON        CLOUDY    37  32  81 NW15G26   30.03R WCI  28
NEVADA         CLOUDY    37  30  75 N12G22    30.10S WCI  30
JOPLIN         CLOUDY    39  31  72 N12       30.10S WCI  32
WEST PLAINS    CLOUDY    35  31  85 NW14G22   29.96R WCI  26

$$

IAZ060-094-KSZ022-034>040-054-083-096-NEZ052-066-093-260400-
...KANSAS...SOUTHEAST NEBRASKA AND IOWA...

CITY           SKY/WX    TMP DP  RH WIND       PRES   REMARKS
TOPEKA         CLOUDY    39  28  64 NW8       30.12S WCI  33
MANHATTAN      PTCLDY    34  28  79 CALM      30.12F
EMPORIA        CLOUDY    33  28  81 W6        30.12S WCI  28
CHANUTE        CLOUDY    40  32  73 N8        30.12S WCI  34
WICHITA        CLEAR     38  28  67 N6        30.13F WCI  33
OMAHA          CLOUDY    36  32  85 CALM      30.08S
LINCOLN        CLOUDY    34  29  82 CALM      30.09F
FALLS CITY     CLOUDY    35  29  78 E5        30.11R WCI  31
LAMONI         CLOUDY    32  27  81 N9        30.07R WCI  24
DES MOINES     CLOUDY    33  24  69 N6        30.08R WCI  28

$$



USA.gov is the U.S. government's official web portal to all federal, state and local government web resources and services.